Williamtown Air Force Base, Australia

5:17 PM AEST on October 01, 2016 (GMT +1000)
Williamtown Military

Weather History for YWLM - September, 2013

Change the Weather History Date:

Saturday, September 28, 2013

  Actual Average Record
Temperature  
Mean Temperature 67 °F -  
Max Temperature 87 °F - - ()
Min Temperature 47 °F - - ()
Cooling Degree Days 2    
Growing Degree Days 17 (Base 50)    
Moisture  
Dew Point 69 °F    
Average Humidity 99    
Maximum Humidity 100    
Minimum Humidity 94    
Precipitation  
Precipitation 0.00 in - - ()
Sea Level Pressure  
Sea Level Pressure 29.84 in    
Wind  
Wind Speed 10 mph ()    
Max Wind Speed 30 mph    
Max Gust Speed 44 mph    
Visibility 6.2 miles    
Events      
T = Trace of Precipitation, MM = Missing Value Source: Averaged Metar Reports

Daily Weather History Graph

Daily Weather History Graph

Search for Another Location

Airport or City:

Trip Planner

Search our weather history database for the weather conditions in past years. The results will help you decide how hot, cold, wet, or windy it might be!

Date:

Astronomy

Sep. 28, 2013 Rise Set
Actual Time 5:34 AM AEST 5:52 PM AEST
Civil Twilight 5:09 AM AEST 6:17 PM AEST
Nautical Twilight 4:41 AM AEST 6:46 PM AEST
Astronomical Twilight 4:11 AM AEST 7:15 PM AEST
Moon 12:57 AM AEST (9/28) 11:39 AM AEST (9/28)
Length of Visible Light 13h 07m
Length of Day
12h 18m
Last Quarter, 41% of the Moon is Illuminated
Sep 28
Last Quarter
Oct 5
New
Oct 12
First Quarter
Oct 19
Full
Oct 27
Last Quarter

Hourly Weather History & Observations

Time (AEST) Temp. Heat Index Dew Point Humidity Pressure Visibility Wind Dir Wind Speed Gust Speed Precip Events Conditions
12:00 AM 60 °F - 60 °F 100% 29.96 in - NNE 8.1 mph - -  
12:00 AM 60.8 °F - 60.8 °F 100% 29.95 in 6.2 mi NNE 8.1 mph - N/A   Unknown
12:30 AM 59.0 °F - 59.0 °F 100% 29.95 in 6.2 mi NNE 3.5 mph - N/A   Unknown
1:00 AM 54 °F - 54 °F 100% 29.94 in - NNE 4.6 mph - -  
1:00 AM 53.6 °F - 53.6 °F 100% 29.92 in 6.2 mi NNE 4.6 mph - N/A   Unknown
1:30 AM 53.6 °F - 53.6 °F 100% 29.92 in 6.2 mi Calm Calm - N/A   Unknown
2:00 AM 51.8 °F - 51.8 °F 100% 29.89 in - Calm Calm - N/A   Unknown
2:30 AM 48.2 °F - 48.2 °F 100% 29.89 in 6.2 mi Calm Calm - N/A   Unknown
3:00 AM 50 °F - 50 °F 98% 29.92 in - Calm Calm - -  
3:00 AM 50.0 °F - 50.0 °F 100% 29.89 in 6.2 mi Calm Calm - N/A   Unknown
3:30 AM 48.2 °F - 48.2 °F 100% 29.92 in 6.2 mi Calm Calm - N/A   Unknown
4:00 AM 49 °F - 49 °F 100% 29.92 in - NW 8.1 mph - -  
4:00 AM 48.2 °F - 48.2 °F 100% 29.92 in 6.2 mi NW 8.1 mph - N/A   Unknown
4:30 AM 50.0 °F - 50.0 °F 100% 29.89 in 6.2 mi NW 6.9 mph - N/A   Unknown
5:00 AM 50.0 °F - 50.0 °F 100% 29.89 in 6.2 mi NNW 8.1 mph - N/A   Unknown
5:30 AM 50.0 °F - 50.0 °F 100% 29.92 in 6.2 mi NNW 5.8 mph - N/A   Unknown
6:00 AM 50 °F - 50 °F 100% 29.92 in - NNW 3.5 mph - -  
6:00 AM 50.0 °F - 50.0 °F 100% 29.92 in 6.2 mi NNW 3.5 mph - N/A   Unknown
6:30 AM 53.6 °F - 53.6 °F 100% 29.92 in 6.2 mi NW 6.9 mph - N/A   Unknown
7:00 AM 55 °F - 55 °F 98% 29.92 in - WNW 10.4 mph - -  
7:00 AM 55.4 °F - 55.4 °F 100% 29.92 in 6.2 mi WNW 10.4 mph - N/A   Unknown
7:30 AM 57.2 °F - 57.2 °F 100% 29.92 in 6.2 mi NW 10.4 mph - N/A   Unknown
8:00 AM 60.8 °F - 60.8 °F 100% 29.92 in 6.2 mi NW 16.1 mph - N/A   Unknown
8:30 AM 62.6 °F - 62.6 °F 100% 29.92 in 6.2 mi NW 17.3 mph - N/A   Unknown
9:00 AM 65 °F - 65 °F 99% 29.91 in - NW 11.5 mph - -  
9:00 AM 64.4 °F - 64.4 °F 100% 29.89 in 6.2 mi NW 11.5 mph - N/A   Unknown
9:30 AM 68.0 °F - 68.0 °F 100% 29.89 in 6.2 mi NW 8.1 mph - N/A   Unknown
10:00 AM 72 °F - 72 °F 98% 29.88 in - West 9.2 mph - -  
10:00 AM 71.6 °F - 71.6 °F 100% 29.86 in 6.2 mi West 9.2 mph - N/A   Unknown
10:30 AM 77.0 °F - 75.2 °F 94% 29.86 in 6.2 mi WNW 12.7 mph - N/A   Unknown
11:00 AM 78.8 °F - 78.8 °F 100% 29.83 in 6.2 mi NW 12.7 mph - N/A   Unknown
11:06 AM 80.6 °F 89.3 °F 80.6 °F 100% 29.83 in 6.2 mi WNW 17.3 mph 29.9 mph N/A   Unknown
11:30 AM 84.2 °F 103.5 °F 84.2 °F 100% 29.80 in 6.2 mi WNW 21.9 mph - N/A   Unknown
12:00 PM 85 °F - 84 °F 97% 29.79 in - WNW 24.2 mph - -  
12:00 PM 84.2 °F 103.5 °F 84.2 °F 100% 29.77 in 6.2 mi WNW 24.2 mph - N/A   Unknown
12:07 PM 86.0 °F 107.7 °F 84.2 °F 94% 29.77 in 6.2 mi WNW 24.2 mph 38.0 mph N/A   Unknown
12:33 PM 86.0 °F 111.5 °F 86.0 °F 100% 29.77 in 6.2 mi WNW 25.3 mph 42.6 mph N/A   Unknown
1:00 PM 86 °F - 86 °F 100% 29.76 in - WNW 29.9 mph - -  
1:00 PM 86.0 °F 111.5 °F 86.0 °F 100% 29.74 in 6.2 mi WNW 29.9 mph 43.7 mph N/A   Unknown
1:30 PM 86.0 °F 111.5 °F 86.0 °F 100% 29.74 in 6.2 mi NW 28.8 mph - N/A   Unknown
1:57 PM 87.8 °F 120.2 °F 87.8 °F 100% 29.71 in 6.2 mi NW 24.2 mph 36.8 mph N/A   Unknown
2:00 PM 87.8 °F 120.2 °F 87.8 °F 100% 29.71 in 6.2 mi WNW 26.5 mph 39.1 mph N/A   Unknown
2:30 PM 87.8 °F 120.2 °F 87.8 °F 100% 29.71 in 6.2 mi WNW 26.5 mph - N/A   Unknown
2:52 PM 87.8 °F 120.2 °F 87.8 °F 100% 29.71 in 6.2 mi WNW 25.3 mph 36.8 mph N/A   Unknown
3:00 PM 87 °F - 87 °F 99% 29.73 in - WNW 20.7 mph - -  
3:04 PM 86.0 °F 111.5 °F 86.0 °F 100% 29.71 in 6.2 mi WNW 20.7 mph 32.2 mph N/A   Unknown
3:30 PM 86.0 °F 111.5 °F 86.0 °F 100% 29.71 in 6.2 mi WNW 24.2 mph - N/A   Unknown
3:47 PM 86.0 °F 111.5 °F 86.0 °F 100% 29.71 in 6.2 mi WNW 25.3 mph 36.8 mph N/A   Unknown
4:00 PM 85 °F - 85 °F 100% 29.73 in - NW 24.2 mph - -  
4:00 PM 86.0 °F 111.5 °F 86.0 °F 100% 29.71 in 6.2 mi NW 24.2 mph - N/A   Unknown
4:04 PM 86.0 °F 107.7 °F 84.2 °F 94% 29.71 in 6.2 mi NW 24.2 mph 36.8 mph N/A   Unknown
4:30 PM 84.2 °F 103.5 °F 84.2 °F 100% 29.71 in 6.2 mi WNW 24.2 mph 39.1 mph N/A   Unknown
5:00 PM 82.4 °F 96.1 °F 82.4 °F 100% 29.74 in 6.2 mi NW 21.9 mph - N/A   Unknown
5:30 PM 80.6 °F 89.3 °F 80.6 °F 100% 29.74 in 6.2 mi WNW 19.6 mph - N/A   Unknown
6:00 PM 78 °F - 77 °F 97% 29.79 in - WNW 16.1 mph - -  
6:00 PM 77.0 °F - 77.0 °F 100% 29.77 in 6.2 mi WNW 16.1 mph - N/A   Unknown
6:30 PM 75.2 °F - 75.2 °F 100% 29.80 in 6.2 mi WNW 15.0 mph - N/A   Unknown
7:00 PM 73 °F - 73 °F 100% 29.83 in - WNW 15.0 mph - -  
7:00 PM 73.4 °F - 73.4 °F 100% 29.83 in 6.2 mi WNW 15.0 mph - N/A   Unknown
7:30 PM 69.8 °F - 69.8 °F 100% 29.83 in 6.2 mi West 10.4 mph - N/A   Unknown
8:00 PM 68.0 °F - 66.2 °F 94% 29.86 in 6.2 mi West 10.4 mph - N/A   Unknown
8:30 PM 66.2 °F - 66.2 °F 100% 29.86 in 6.2 mi West 8.1 mph - N/A   Unknown
9:00 PM 65 °F - 65 °F 98% 29.89 in - NW 9.2 mph - -  
9:00 PM 64.4 °F - 64.4 °F 100% 29.89 in 6.2 mi NW 9.2 mph - N/A   Unknown
9:30 PM 62.6 °F - 62.6 °F 100% 29.89 in 6.2 mi NW 9.2 mph - N/A   Unknown
10:00 PM 61 °F - 61 °F 99% 29.91 in - WNW 5.8 mph - -  
10:00 PM 60.8 °F - 60.8 °F 100% 29.89 in 6.2 mi WNW 5.8 mph - N/A   Unknown
10:30 PM 59.0 °F - 59.0 °F 100% 29.89 in 6.2 mi WNW 10.4 mph - N/A   Unknown
11:00 PM 60.8 °F - 60.8 °F 100% 29.89 in 6.2 mi WNW 10.4 mph - N/A   Unknown
11:30 PM 59.0 °F - 59.0 °F 100% 29.89 in 6.2 mi SW 6.9 mph - N/A   Unknown